Weather History for KGRB - November, 2011

Change the Weather History Date:

Saturday, November 5, 2011

  Actual Average Record
Temperature  
Mean Temperature 42 °F 40 °F  
Max Temperature 54 °F 48 °F 71 °F (1924)
Min Temperature 30 °F 32 °F 1 °F (1951)
Degree Days  
Heating Degree Days 23 25  
Month to date heating degree days 111 123  
Since 1 July heating degree days 779 949  
Cooling Degree Days 0 0  
Month to date cooling degree days 0 0  
Year to date cooling degree days 591 398  
Moisture  
Dew Point 34 °F    
Average Humidity 73    
Maximum Humidity 96    
Minimum Humidity 50    
Precipitation  
Precipitation 0.00 in 0.08 in 1.09 in (1896)
Month to date precipitation 0.71 0.37  
Year to date precipitation 33.74 26.25  
Snow  
Snow 0.00 in 0.00 in 10.50 in (1896)
Month to date snowfall 0.0 0.2  
Since 1 July snowfall T 0.4  
Since 1 September snowfall T 0.4  
Snow Depth 0.00 in    
Sea Level Pressure  
Sea Level Pressure 30.16 in    
Wind  
Wind Speed 9 mph (SSE)    
Max Wind Speed 17 mph    
Max Gust Speed 22 mph    
Visibility 9 miles    
Events      
T = Trace of Precipitation, MM = Missing Value Source: NWS Daily Summary

Daily Weather History Graph

Daily Weather History Graph

Search for Another Location

Airport or City:

Trip Planner

Search our weather history database for the weather conditions in past years. The results will help you decide how hot, cold, wet, or windy it might be!

Date:

Astronomy

Nov. 05, 2011 Rise Set
Actual Time 7:34 AM CDT 5:36 PM CDT
Civil Twilight 7:04 AM CDT 6:07 PM CDT
Nautical Twilight 6:29 AM CDT 6:41 PM CDT
Astronomical Twilight 5:55 AM CDT 7:15 PM CDT
Moon 3:03 PM CDT 2:34 AM CDT
Length of Visible Light 11h 02m
Length of Day
10h 01m
Waxing Gibbous, 78% of the Moon is Illuminated
Nov 5
Waxing Gibbous
Nov 10
Full
Nov 18
Last Quarter
Nov 25
New
Dec 2
First Quarter

Hourly Weather History & Observations

Time (CDT) Temp. Windchill Dew Point Humidity Pressure Visibility Wind Dir Wind Speed Gust Speed Precip Events Conditions
12:53 AM 32.0 °F - 30.0 °F 92% 30.28 in 10.0 mi Calm Calm - N/A   Clear
1:53 AM 34.0 °F - 30.0 °F 85% 30.26 in 10.0 mi Calm Calm - N/A   Clear
2:53 AM 32.0 °F 28.7 °F 30.0 °F 92% 30.27 in 10.0 mi WNW 3.5 mph - N/A   Clear
3:53 AM 30.9 °F - 28.9 °F 92% 30.26 in 8.0 mi Calm Calm - N/A   Clear
4:53 AM 30.9 °F 27.5 °F 27.0 °F 85% 30.25 in 8.0 mi South 3.5 mph - N/A   Clear
5:53 AM 34.0 °F 29.8 °F 32.0 °F 92% 30.26 in 7.0 mi South 4.6 mph - N/A   Clear
6:53 AM 33.8 °F 27.7 °F 32.0 °F 93% 30.23 in 7.0 mi South 6.9 mph - N/A   Clear
7:53 AM 34.0 °F 28.8 °F 32.0 °F 92% 30.25 in 6.0 mi SSE 5.8 mph - N/A   Clear
8:53 AM 33.8 °F 27.7 °F 32.0 °F 93% 30.25 in 10.0 mi South 6.9 mph - N/A   Haze
10:53 AM 46.0 °F 39.9 °F 35.1 °F 66% 30.22 in 10.0 mi South 13.8 mph - N/A   Clear
11:53 AM 48.9 °F - 34.0 °F 56% 30.20 in 10.0 mi South 15.0 mph - N/A   Clear
12:53 PM 51.1 °F - 35.1 °F 54% 30.17 in 10.0 mi South 13.8 mph - N/A   Clear
1:53 PM 53.1 °F - 36.0 °F 52% 30.13 in 10.0 mi South 10.4 mph - N/A   Clear
2:53 PM 53.1 °F - 36.0 °F 52% 30.11 in 10.0 mi SSE 12.7 mph - N/A   Clear
3:53 PM 53.1 °F - 35.1 °F 50% 30.09 in 10.0 mi SSE 9.2 mph - N/A   Clear
4:53 PM 48.9 °F - 39.0 °F 69% 30.08 in 10.0 mi SE 12.7 mph - N/A   Clear
5:53 PM 46.9 °F - 39.0 °F 74% 30.07 in 10.0 mi SSE 12.7 mph - N/A   Clear
6:53 PM 46.0 °F 40.2 °F 39.0 °F 76% 30.07 in 10.0 mi SSE 12.7 mph - N/A   Clear
7:53 PM 44.6 °F 38.8 °F 39.2 °F 81% 30.04 in 10.0 mi SSE 11.5 mph - N/A   Clear
8:53 PM 45.0 °F 39.7 °F 39.0 °F 80% 30.06 in 10.0 mi SSE 10.4 mph - N/A   Clear
9:53 PM 45.0 °F 39.7 °F 37.0 °F 74% 30.04 in 10.0 mi South 10.4 mph - N/A   Clear
10:53 PM 45.0 °F 40.6 °F 37.0 °F 74% 30.02 in 10.0 mi South 8.1 mph - N/A   Clear
11:53 PM 45.0 °F 40.1 °F 37.0 °F 74% 29.99 in 10.0 mi South 9.2 mph - N/A   Clear